FW0887 Weather Reports


time (UTC)temp
C
wind
direction
speed
KPH
gust
KPH
rain 1hr
cm
rain 24hr
cm
rain mn
cm
humidity
%
barometer
mb
20260906191558 14 78 0.0 0.0 0.00 0.00 0.00 69 1025.9
20260906190104 14 78 0.0 0.0 0.00 0.00 0.00 68 1026.0
20260906184625 15 78 0.0 0.0 0.00 0.00 0.00 67 1026.1
20260906184248 15 0.0 0.0 0.00 0.00 0.00 68 1026.1
20260906183056 15 78 0.0 0.0 0.00 0.00 0.00 67 1025.9
20260906181556 16 78 0.0 0.0 0.00 0.00 0.00 64 1025.8
20260906180056 17 78 0.0 0.0 0.00 0.00 0.00 61 1025.8
20260906174555 18 78 0.0 0.0 0.00 0.00 0.00 58 1025.7
20260906174219 19 0.0 0.0 0.00 0.00 0.00 51 1025.9
20260906173059 18 78 0.0 0.0 0.00 0.00 0.00 52 1025.6
20260906171555 19 86 0.0 0.0 0.00 0.00 0.00 48 1025.7
20260906170053 20 86 0.0 0.0 0.00 0.00 0.00 46 1025.7
20260906164554 20 333 0.0 0.0 0.00 0.00 0.00 44 1025.6
20260906164247 21 0.0 0.0 0.00 0.00 0.00 45 1026.2
20260906163053 20 330 0.0 0.0 0.00 0.00 0.00 43 1025.7
20260906161552 21 85 0.0 0.0 0.00 0.00 0.00 43 1025.7
20260906160052 21 360 0.0 0.0 0.00 0.00 0.00 44 1025.6
20260906154551 21 339 0.0 0.0 0.00 0.00 0.00 40 1025.8
20260906154218 22 0.0 0.0 0.00 0.00 0.00 44 1026.6
20260906153050 22 334 0.0 0.0 0.00 0.00 0.00 43 1026.0
20260906151553 22 42 0.0 0.0 0.00 0.00 0.00 40 1026.1
20260906150049 23 274 0.0 0.0 0.00 0.00 0.00 40 1026.2
20260906144549 23 267 0.0 0.0 0.00 0.00 0.00 46 1026.4
20260906144301 23 0.0 0.0 0.00 0.00 0.00 43 1027.2
20260906143046 23 269 0.0 0.0 0.00 0.00 0.00 43 1026.4
20260906141545 23 273 0.0 0.0 0.00 0.00 0.00 43 1026.4
20260906140049 23 275 0.0 0.0 0.00 0.00 0.00 42 1026.6
20260906134541 22 333 0.0 0.0 0.00 0.00 0.00 47 1026.7
20260906134209 22 0.0 0.0 0.00 0.00 0.00 47 1027.5
20260906133046 22 118 0.0 0.0 0.00 0.00 0.00 50 1026.6
20260906131538 22 249 0.0 0.0 0.00 0.00 0.00 47 1026.7
20260906130038 22 239 0.0 0.0 0.00 0.00 0.00 48 1026.9
20260906124539 22 69 0.0 0.0 0.00 0.00 0.00 45 1026.9
20260906124232 22 0.0 0.0 0.00 0.00 0.00 49 1027.9
20260906123037 22 227 0.0 0.0 0.00 0.00 0.00 51 1027.1
20260906121533 21 276 0.0 0.0 0.00 0.00 0.00 53 1027.2
20260906120029 21 255 0.0 0.0 0.00 0.00 0.00 53 1027.2
20260906114527 21 123 0.0 0.0 0.00 0.00 0.00 54 1027.5
20260906114202 21 0.0 0.0 0.00 0.00 0.00 59 1028.4
20260906113024 20 119 0.0 0.0 0.00 0.00 0.00 57 1027.5
20260906111522 20 84 0.0 0.0 0.00 0.00 0.00 59 1027.6
20260906110022 20 80 0.0 0.0 0.00 0.00 0.00 54 1027.6
20260906104517 19 236 0.0 0.0 0.00 0.00 0.00 62 1027.9
20260906104232 19 0.0 0.0 0.00 0.00 0.00 64 1028.8
20260906103035 18 323 0.0 0.0 0.00 0.00 0.00 63 1028.0
20260906101513 18 270 0.0 0.0 0.00 0.00 0.00 63 1028.3
20260906100021 18 182 0.0 0.0 0.00 0.00 0.00 64 1028.2
20260906094508 17 86 0.0 0.0 0.00 0.00 0.00 66 1028.4
20260906094222 18 0.0 0.0 0.00 0.00 0.00 64 1029.1
20260906093007 18 74 0.0 0.0 0.00 0.00 0.00 64 1028.5
20260906091504 17 70 0.0 0.0 0.00 0.00 0.00 65 1028.5
20260906090002 17 240 0.0 0.0 0.00 0.00 0.00 68 1028.5
20260906084659 17 76 0.0 0.0 0.00 0.00 0.00 71 1028.5
20260906084204 16 0.0 0.0 0.00 0.00 0.00 68 1029.1
20260906083059 16 27 0.0 0.0 0.00 0.00 0.00 69 1028.3
20260906081552 15 232 0.0 0.0 0.00 0.00 0.00 72 1028.4
20260906080051 15 225 0.0 0.0 0.00 0.00 0.00 78 1028.4
20260906074545 13 225 0.0 0.0 0.00 0.00 0.00 85 1028.3
20260906074132 13 0.0 0.0 0.00 0.00 0.00 88 1028.9
20260906073041 13 225 0.0 0.0 0.00 0.00 0.00 88 1028.2
20260906071538 12 225 0.0 0.0 0.00 0.00 0.00 91 1028.2
20260906070037 10 225 0.0 0.0 0.00 0.00 0.00 91 1028.1
20260906064538 9 225 0.0 0.0 0.00 0.00 0.00 91 1028.0
20260906064103 8 0.0 0.0 0.00 0.00 0.00 90 1028.1
20260906063034 8 226 0.0 0.0 0.00 0.00 0.00 90 1027.8
20260906061533 7 226 0.0 0.0 0.00 0.00 0.00 89 1027.8
20260906060032 7 226 0.0 0.0 0.00 0.00 0.00 89 1027.8
20260906054537 6 226 0.0 0.0 0.00 0.00 0.00 88 1027.7
20260906054129 7 0.0 0.0 0.00 0.00 0.00 88 1027.8
20260906053029 6 226 0.0 0.0 0.00 0.00 0.00 88 1027.6
20260906051527 7 226 0.0 0.0 0.00 0.00 0.00 88 1027.4
20260906050027 7 226 0.0 0.0 0.00 0.00 0.00 88 1027.3
20260906044527 7 226 0.0 0.0 0.00 0.00 0.00 88 1027.2
20260906044059 7 0.0 0.0 0.00 0.00 0.00 88 1027.7
20260906043025 7 226 0.0 0.0 0.00 0.00 0.00 88 1027.3
20260906041522 7 226 0.0 0.0 0.00 0.00 0.00 87 1027.1
20260906040022 7 226 0.0 0.0 0.00 0.00 0.00 87 1027.0
20260906034520 7 226 0.0 0.0 0.00 0.13 0.00 87 1027.0
20260906034127 7 0.0 0.0 0.00 0.00 0.00 87 1027.5
20260906033019 7 226 0.0 0.0 0.00 0.13 0.00 87 1027.1
20260906031518 7 226 0.0 0.0 0.00 0.13 0.00 87 1026.9
20260906030017 7 226 0.0 0.0 0.00 0.13 0.00 86 1026.9
20260906024514 7 226 0.0 0.0 0.00 0.25 0.00 87 1026.8
20260906024204 8 0.0 0.0 0.00 0.23 0.00 86 1027.3
20260906023012 8 225 0.0 0.0 0.00 0.25 0.00 86 1026.7
20260906021520 8 225 0.0 0.0 0.00 0.25 0.00 86 1026.4
20260906020011 8 225 0.0 0.0 0.00 0.25 0.00 86 1026.2
20260906014514 8 225 0.0 0.0 0.00 0.33 0.00 85 1026.1
20260906014153 8 0.0 0.0 0.00 0.33 0.00 84 1026.8
20260906013008 8 225 0.0 0.0 0.00 0.33 0.00 84 1026.1
20260906011502 8 225 0.0 0.0 0.00 0.33 0.00 84 1026.0
20260906010003 8 225 0.0 0.0 0.00 0.33 0.00 84 1026.0
20260906004559 9 225 0.0 0.0 0.00 0.36 0.00 83 1026.0
20260906004033 10 0.0 0.0 0.00 0.36 0.00 83 1026.4
20260906003057 9 225 0.0 0.0 0.00 0.36 0.00 83 1025.9
20260906001555 9 226 0.0 0.0 0.00 0.36 0.00 83 1025.8
20260906000054 10 226 0.0 0.0 0.00 0.36 0.00 82 1025.8
20260905234551 10 225 0.0 0.0 0.00 0.36 0.00 81 1025.7
20260905234124 10 0.0 0.0 0.00 0.36 0.00 81 1026.1
20260905233049 10 226 0.0 0.0 0.00 0.36 0.00 81 1025.5
20260905231548 10 226 0.0 0.0 0.00 0.36 0.00 81 1025.4
20260905230044 11 226 0.0 0.0 0.00 0.36 0.00 79 1025.2
20260905224542 11 226 0.0 0.0 0.00 0.36 0.00 79 1025.1
20260905224030 11 0.0 0.0 0.00 0.36 0.00 78 1025.6
20260905223038 11 226 0.0 0.0 0.00 0.36 0.00 78 1025.0
20260905221535 12 226 0.0 0.0 0.00 0.36 0.00 77 1024.8
20260905220032 12 226 0.0 0.0 0.00 0.36 0.00 75 1024.8
20260905214530 12 226 0.0 0.0 0.00 0.36 0.36 75 1024.9
20260905213959 13 0.0 0.0 0.00 0.36 0.36 74 1025.3
20260905213029 12 226 0.0 0.0 0.00 0.36 0.36 74 1024.8
20260905211528 13 226 0.0 0.0 0.00 0.36 0.36 74 1024.5
20260905210028 13 226 0.0 0.0 0.00 0.36 0.36 72 1024.5
20260905204527 13 226 0.0 0.0 0.00 0.36 0.36 72 1024.4
20260905204030 13 0.0 0.0 0.00 0.36 0.36 71 1024.8
20260905203025 13 226 0.0 0.0 0.00 0.36 0.36 71 1024.2
20260905201524 13 226 0.0 0.0 0.00 0.36 0.36 71 1024.0
20260905200031 14 226 0.0 0.0 0.00 0.36 0.36 70 1023.8
20260905194521 15 226 0.0 0.0 0.00 0.36 0.36 68 1023.7
20260905193957 16 0.0 0.0 0.00 0.36 0.36 65 1024.3
20260905193020 16 225 0.0 0.0 0.00 0.36 0.36 65 1023.6